Location: Boiro
(42.6475°N, 8.8834°W)
Time: 20:39:24
(UTC+01:00)

Vanguard 1 - Pass Details

Date: 02 December 2021
Orbit: 652 x 3830 km, 34.2° (Epoch: 19 January)

Event Time Altitude Azimuth Distance (km) Brightness Sun altitude
Rises 22:44:06 0° 192° (SSW) 6,648 14.3 -50.8°
Reaches altitude 10° 22:49:26 10° 180° (S) 6,065 13.9 -51.7°
Enters shadow 22:49:28 10° 180° (S) 6,063 13.9 -51.7°
Maximum altitude 23:04:22 26° 133° (SE) 5,559 - -54.3°
Drops below altitude 10° 23:20:53 10° 88° (E) 6,830 - -57.0°
Sets 23:27:17 0° 77° (ENE) 7,631 - -58.0°
